Regional Weather Roundup
Issued by NWS

Home | Current Version | Previous Version | Text Only | Print | Product List | Glossary On
Versions: 1 2 3 4 5 6 7 8 9 10 11 12 13 14 15 16 17 18 19 20 21 22 23 24 25 26 27 28 29 30 31 32 33 34 35 36 37 38 39 40 41 42 43 44 45 46 47 48 49 50
000
ASUS43 KTOP 232259
RWRKS

WEATHER ROUNDUP FOR KANSAS
NATIONAL WEATHER SERVICE GOODLAND KS
600 PM CDT WED JUL 23 2014

NOTE:  "FAIR" INDICATES FEW OR NO CLOUDS BELOW 12,000 FEET WITH NO
SIGNIFICANT WEATHER AND/OR OBSTRUCTIONS TO VISIBILITY.

KSZ001>006-013>018-027>032-041>047-240000-
NORTHWEST KANSAS

CITY           SKY/WX    TMP DP  RH WIND       PRES   REMARKS
GOODLAND       SUNNY     90  59  35 S16       30.19F
HAYS           SUNNY     86  64  48 E17       30.14F
HILL CITY      SUNNY     86  65  49 E12       30.15F
RUSSELL        MOSUNNY   85  64  49 E15       30.11F
$$

KSZ061>065-074>080-084>089-240000-
SOUTHWEST KANSAS

CITY           SKY/WX    TMP DP  RH WIND       PRES   REMARKS
DODGE CITY     SUNNY     89  67  47 SE10      30.15F
ELKHART          N/A     93  64  38 SE10        N/A
GARDEN CITY    SUNNY     89  68  49 SE13      30.16F
GREAT BEND     MOSUNNY   90  66  45 E10       30.10F
LIBERAL        SUNNY     93  66  40 NE18      30.16F HX  96
PRATT          SUNNY     90  66  45 SE5       30.11F
$$

KSZ066>073-081>083-090>101-240000-
SOUTHEAST KANSAS

CITY           SKY/WX    TMP DP  RH WIND       PRES   REMARKS
CHANUTE        PTSUNNY   86  68  54 N7        30.06S
COFFEYVILLE    PTSUNNY   83  73  72 N8        30.04S
HUTCHINSON     MOSUNNY   89  66  46 NE8       30.09F
MEDICINE LODGE   N/A     92  70  48 E3        30.05F HX  97
NEWTON         MOSUNNY   88  63  42 NE12      30.12F
PARSONS        PTSUNNY   87  72  60 N9        30.06S
WICHITA INTL   MOSUNNY   89  65  44 NE12      30.06F
WICHITA JABRA  MOSUNNY   87  64  46 E9        30.07F
WINFIELD       PTSUNNY   88  69  53 NE8       30.07F
$$

KSZ007>012-019>026-033>040-048>060-102>105-240000-
NORTHEAST KANSAS

CITY           SKY/WX    TMP DP  RH WIND       PRES   REMARKS
CONCORDIA      SUNNY     87  61  41 E9        30.12S
EMPORIA        MOSUNNY   88  61  40 NE13      30.06F
LAWRENCE       SUNNY     87  65  47 NE10G17   30.08F
MANHATTAN      SUNNY     91  61  36 E10       30.07F
OLATHE IND     SUNNY     87  63  44 N16       30.09F
OLATHE EXE     SUNNY     87  63  44 NE14      30.08F
SALINA         MOSUNNY   91  60  35 NE8       30.09F
TOPEKA BILLARD SUNNY     88  64  44 NE12      30.08F
TOPEKA FORBES  SUNNY     88  63  43 NE12      30.08F
$$



USA.gov is the U.S. government's official web portal to all federal, state and local government web resources and services.